Location: W�rzburg
(49.7529°N, 9.8822°E)
Time: 02:44:41
(UTC+01:00)

ISS - Pass Details

Date: 06 January 2018
Orbit: 402 x 407 km, 51.6° (Epoch: 18 January)

Event Time Altitude Azimuth Distance (km) Brightness Sun altitude
Exits shadow 06:46:20 28° 293° (WNW) 798 -2.9 -13.9°
Maximum altitude 06:47:51 62° 5° (N) 464 -3.7 -13.6°
Drops below altitude 10° 06:51:08 10° 87° (E) 1,470 0.2 -13.1°
Sets 06:53:14 0° 91° (E) 2,331 1.6 -12.8°
